MPEC 1999-W30: 1998 FM5

The following Minor Planet Electronic Circular may be linked-to from your own Web pages, but must not otherwise be redistributed electronically.


Read MPEC 1999-W29 Read MPEC 1999-W31


M.P.E.C. 1999-W30                                Issued 1999 Nov. 30, 14:45 UT

     The Minor Planet Electronic Circulars contain information on unusual
         minor planets and routine data on comets.  They are published
   on behalf of Commission 20 of the International Astronomical Union by the
          Minor Planet Center, Smithsonian Astrophysical Observatory,
                          Cambridge, MA 02138, U.S.A.

             BMARSDEN@CFA.HARVARD.EDU or GWILLIAMS@CFA.HARVARD.EDU
          URL http://cfa-www.harvard.edu/iau/mpc.html  ISSN 1523-6714

                                   1998 FM5

                           Revision to MPEC 1998-F21

Observations:
     J98F05M 6 1988 04 20.72685 17 29 40.43 -06 22 27.4                      413
     J98F05M 6 1988 04 20.79630 17 29 37.79 -06 21 49.3                      413

Observer details:
413 Siding Spring.  Trail located and measured by M. Tombelli, A. Boattini,
    G. Forti, L. Tesi.  1.2-m Schmidt.

First and last observations above in comparison with prediction:
Residuals in seconds of arc (or two decimals in degrees), reference and Delta-T
880420 413 0.03+ 0.00-    880420 413 0.03+ 0.01-    MPC 35077   -0.081 day

Orbital elements:
1998 FM5
Epoch 1999 Aug. 10.0 TT = JDT 2451400.5                 Williams
M 156.58274              (2000.0)            P               Q
n   0.28920517     Peri.  311.41794     -0.62323161     -0.78197122
a   2.2646374      Node   177.07831     +0.76375730     -0.61140665
e   0.5547095      Incl.   11.50553     +0.16809863     -0.12125558
P   3.41           H   16.0           G   0.15           U   2
Residuals in seconds of arc
880420 413  0.4-  0.9+    980328 046  0.1+  0.3-    980418 750  1.0-  0.4-
880420 413  0.6+  0.0     980328 046  0.1+  0.1-    980418 704  1.1-  0.3-
980324 566  0.1+  0.8-    980328 046  0.2+  0.1+    980418 704  1.7-  0.4+
980324 566  0.2+  0.8-    980328 106  2.0+  0.3+    980418 704  1.4-  0.2+
980324 566  0.2+  0.7-    980328 106  1.8+  0.2+    980418 670  0.9-  0.1+
980324 566  0.3-  0.0     980328 106  1.8+  0.1+    980418 704  1.9-  0.8-
980324 566  0.3-  0.0     980328 540  0.1-  0.8-    980418 670  0.8-  0.4+
980324 566  0.2-  0.2+    980328 540  0.1-  0.2-    980418 670  0.6-  0.1+
980324 046  0.2-  0.1+    980329 422  0.5+  0.1-    980418 670  0.6-  0.1+
980324 046  0.2-  0.2+    980329 422  0.4+  0.0     980419 700  0.7-  0.2+
980324 046  0.4-  0.1+    980329 422  0.4+  0.5-    980419 700  0.1-  0.3+
980324 046  0.2-  0.1+    980329 046  0.2+  0.6-    980419 700  0.6-  0.1-
980324 587  0.4-  0.1+    980329 046  0.4+  0.3-    980419 402  0.1-  0.2-
980324 587  0.4-  0.2+    980329 046  0.3+  0.4-    980419 402  0.1-  0.2-
980324 557  0.3-  0.0     980329 057  1.2+  0.5+    980419 402  0.2-  0.2-
980324 557  0.2-  0.1+    980329 610  0.1+  0.3-    980419 046  0.0   0.1-
980324 557  0.1-  0.2+    980329 057 (2.3+  2.5+)   980419 046  0.3+  0.2-
980324 587  0.1-  0.1+    980329 057  1.8-  1.6+    980419 046  0.3+  0.1-
980324 587  0.3-  0.0     980329 057 (2.9+  0.1-)   980419 860  0.1+  0.2+
980325 758  0.9-  0.7+    980329 610  0.2-  0.4-    980419 860  0.0   0.1-
980325 758  0.2-  0.7+    980329 610  0.5-  0.5-    980420 860  0.5-  0.2+
980325 758  0.7-  0.6+    980329 610  0.7-  0.6-    980420 670  0.0   0.2-
980325 758  0.3-  0.8+    980329 557  0.5+  0.1-    980420 700  0.0   0.2+
980325 758  0.4-  0.8+    980329 557  0.4+  0.2-    980420 670  0.1+  0.2+
980325 566  0.2-  0.7+    980329 557  0.3+  0.2-    980420 700  0.2+  0.1+
980325 566  0.1-  0.7+    980330 758  0.1+  0.0     980420 700  0.1-  0.3+
980325 566  0.3-  0.7+    980330 758  0.4+  0.0     980420 700  0.2+  0.8+
980325 566  0.3-  0.3+    980330 758  0.5+  0.0     980420 670  0.4-  0.0
980325 566  0.4-  0.3+    980330 360  0.0   0.1-    980420 670  0.0   0.1-
980325 566  0.2-  0.6+    980330 360  0.4+  0.1-    980421 700  0.5+  1.2+
980325 426  0.9-  0.0     980330 360  0.1+  0.1-    980421 700  0.3+  0.9+
980325 426  0.3-  0.3+    980330 504  0.2+  0.3-    980421 700  0.5+  1.0+
980325 426  0.3-  0.3+    980330 557  0.0   0.5-    980421 750  0.0   0.3-
980325 402  0.3-  0.1+    980330 504  0.1+  0.6-    980421 750  0.3-  0.4-
980325 402  0.2-  0.5+    980330 504  0.1-  0.2-    980421 108  1.4+  1.1-
980325 402  0.3-  0.4+    980330 504  0.4+  0.4-    980421 108  1.4+  1.8-
980325 355  0.3+  0.0     980330 557  0.2-  0.5-    980421 108  1.5+  1.6-
980325 355  0.6-  0.1+    980330 504  0.0   0.4-    980421 504  1.7+  0.0
980325 355  0.1-  0.2+    980330 504  0.1-  0.5-    980421 504 (2.1+  0.1+)
980325 422  0.3-  0.5+    980330 504  0.0   0.3-    980421 504  1.8+  0.1-
980325 422  0.0   0.5+    980330 504  0.3+  0.6-    980421 504  1.7+  0.2+
980325 422  0.5-  0.3+    980330 557  0.1-  0.5-    980421 504  1.3+  0.1+
980325 422  0.2-  0.4+    980330 557  0.2-  0.5-    980421 504  1.5+  0.0
980325 360  0.0   0.1+    980401 758  0.1-  0.3-    980421 504  1.6+  0.2-
980325 360  0.4-  0.1+    980401 758  0.1+  0.3-    980421 504 (2.1+  0.5+)
980325 360  0.0   0.2+    980402 750  0.5-  0.3-    980422 046  0.1-  0.3-
980325 900  0.1+  0.3+    980402 750  0.0   0.4-    980422 046  0.1-  0.6-
980325 900  0.1+  0.4+    980402 670  0.2-  0.6-    980422 046  0.3+  0.6-
980325 046  0.3-  0.1-    980402 670  0.0   0.4-    980423 750  0.5-  0.3-
980325 046  0.3-  0.3-    980402 670  0.1+  0.3-    980423 750  0.3-  0.1+
980325 046  0.3-  0.2-    980402 670  0.1-  0.5-    980423 557  0.0   0.1+
980325 046  0.2-  0.1-    980402 422  0.2-  0.4-    980423 557  0.2+  0.0
980325 104  0.2+  0.2+    980402 422  0.4-  0.7-    980423 118  0.5+  0.6+
980325 104  0.1-  0.1+    980403 422  0.5-  0.8-    980423 557  0.1-  0.3+
980325 104  1.1+  0.1+    980403 355  0.2+  1.1-    980423 557  0.1+  0.1+
980325 104  0.0   0.4-    980403 355  0.2-  1.0-    980423 118  0.5+  0.6+
980325 104  0.1-  1.7+    980403 355  0.3-  0.7-    980424 633  0.5+  0.0
980325 106  1.7+  0.4+    980403 561  0.1-  1.0-    980424 633  0.2+  0.3-
980325 106  1.7+  0.4+    980403 561  0.2-  0.9-    980424 633  0.9+  0.2+
980325 620  0.3-  0.2-    980403 561  0.4-  1.1-    980424 633  0.0   0.7+
980325 620  0.3-  0.1-    980404 758 (2.8+  0.8-)   980426 422  0.1-  0.3-
980325 106  1.6+  0.4+    980404 758  0.3+  0.0     980426 422  0.3-  0.1-
980325 620  0.3-  0.1+    980404 758  0.3+  0.5-    980426 422  0.6-  0.3-
980325 106  1.7+  0.3+    980404 750  0.7-  0.7-    980426 360  0.4-  0.2-
980325 620  0.2-  0.7+    980404 750  0.6-  1.2-    980426 360  0.4-  0.3-
980325 620  0.2-  1.1+    980404 750  0.1+  0.5-    980426 360  0.1-  0.3-
980325 106  1.6+  0.2+    980405 758  0.3+  0.4+    980428 422  1.0-  0.2-
980325 629  0.2+  0.7-    980405 758  0.6-  0.1+    980428 422  1.3-  0.5+
980325 629  0.2+  0.0     980405 758  0.6-  0.2+    980428 422  1.0-  0.2+
980325 629  0.2+  0.4-    980405 750  0.4-  0.2-    980428 402  0.5-  0.5+
980325 629  1.0+  0.2-    980405 750  0.3-  0.3+    980428 402  0.4-  0.1+
980326 758  0.4+  0.3+    980405 750  1.3-  0.3-    980428 402  0.3-  0.2+
980326 758  0.2-  0.5+    980405 422  0.1+  0.1-    980429 700  0.6-  0.1+
980326 758  0.3-  0.4+    980405 422  1.1-  0.3+    980429 700  0.5-  0.0
980326 566  0.3-  0.5+    980405 422  0.6-  0.4+    980429 700  0.2-  0.0
980326 566  0.3-  0.4+    980409 557  0.0   0.3+    980430 700  0.5+  0.1-
980326 566  0.3-  0.7+    980409 557  0.3+  0.4+    980430 700  0.1-  0.7+
980326 422  0.1-  0.2-    980409 557  0.1+  0.2+    980430 700  1.2+  0.2-
980326 422  0.3+  0.3+    980409 540  1.0+  0.9+    980430 046  0.1+  0.2+
980326 422  0.7-  0.5-    980409 540  0.7+  1.0+    980430 046  0.6+  0.0
980326 557  0.2-  0.1-    980409 557  0.0   0.3+    980430 046  0.2+  0.2-
980326 046  0.1+  0.0     980409 540  0.2+  0.5+    980430 046  0.0   0.1-
980326 046  0.0   0.0     980409 046  0.0   0.6+    980503 046  0.0   0.4-
980326 046  0.1-  0.0     980409 046  0.0   0.5+    980503 046  0.1-  0.0
980326 108  1.8+  1.5-    980409 046  0.3+  0.2+    980503 046  0.3+  0.1+
980326 108  0.6-  1.0-    980411 750 (2.4-  0.7+)   980507 504  0.2-  0.1+
980326 108  1.9+  1.2-    980411 750  1.0-  0.6+    980507 504  0.5-  0.2+
980326 610  0.7-  0.1-    980411 750  0.9-  1.2+    980507 504  0.4-  0.1-
980326 610  0.7-  0.2-    980411 402  0.1-  0.2+    980510 046  0.7-  0.9+
980326 610  0.6-  0.3-    980411 402  0.2-  0.2+    980510 046  0.4-  0.7+
980326 557  0.1-  0.1-    980411 367  0.2-  0.0     980510 046  1.1-  0.5+
980326 610  0.5-  0.2-    980411 402  0.2+  0.6+    980511 046  0.3+  0.6+
980326 610  0.4-  0.3-    980411 367  0.3+  0.0     980511 046  0.1-  0.3+
980326 610  0.4-  0.1-    980411 046  0.7+  0.1-    980511 046  0.3+  0.5+
980326 557  0.0   0.1-    980411 046  0.1+  0.1+    980515 620  0.1+  1.0-
980326 112  0.8+  0.1+    980411 046  0.4+  0.6+    980515 620  0.2+  0.4-
980326 112  0.3+  0.2-    980414 758  0.4+  0.5-    980515 620  0.3+  0.5+
980326 112  1.2+  0.1-    980414 758  0.7-  0.8-    980515 620  0.3+  0.8+
980326 112  0.5+  0.1-    980414 758  0.4-  0.9-    980515 620  0.4+  1.3+
980326 557  0.1+  0.1-    980414 108  0.4+  0.3-    980516 700  0.4-  0.3-
980327 758  0.0   0.0     980414 108  0.5+  1.2-    980516 700  0.4-  0.3+
980327 758  0.1+  0.1-    980414 108  1.1+  0.5-    980516 700  1.3+  1.1+
980327 758  0.4+  0.2+    980414 108  0.0   1.2+    980520 402  0.2-  0.4+
980327 426  0.3-  0.1-    980414 108  1.2-  0.3-    980520 402  0.2+  0.1-
980327 426  0.2+  0.0     980414 610  0.0   0.4+    980520 402  0.2+  0.2-
980327 426  0.0   0.0     980414 610  0.2-  0.1+    980522 402  0.4+  0.4-
980327 897  0.1+  0.1-    980414 106  1.9+  0.3-    980522 402  0.4-  1.0-
980327 897  0.2+  0.4+    980414 610  0.4-  0.1+    980522 402  0.0   0.5-
980327 897  0.2+  0.2-    980414 106  1.1+  0.0     980522 360  0.2-  0.4-
980327 620  0.3+  0.2-    980414 610  0.4-  0.0     980522 360  0.1-  0.5-
980327 620  0.4-  0.5-    980414 106  1.1+  0.1-    980522 360  0.2-  0.2-
980327 620  0.6-  0.5-    980414 610  0.6-  0.1-    980522 046  0.8-  0.3-
980327 620  1.3-  0.6-    980414 106 (2.2+  0.2-)   980522 046  0.4-  0.0
980327 620  0.3-  0.5-    980414 106 (2.4+  0.0 )   980522 046  0.3-  0.5-
980327 620  0.0   0.2+    980415 860  0.0   0.1+    980522 046  0.1+  0.4-
980327 620  0.2-  0.3+    980415 860  0.5+  0.0     980524 426  1.2-  0.1-
980327 620  0.9-  0.3+    980415 860  1.9+  0.5-    980524 426  1.0-  0.4-
980327 620  0.1+  0.4+    980415 360  0.4-  0.4+    980524 426  0.7-  0.7-
980327 620  0.6-  0.3-    980415 360  0.4-  0.5+    980531 046  0.1+  0.6-
980327 620  0.2-  0.4+    980415 360  0.5-  0.4+    980531 046  0.7+  0.3+
980327 620  0.4-  0.7+    980416 046  0.3+  0.6+    980531 046  0.4-  0.3+
980327 620  0.6+  1.1+    980416 046  0.5+  0.7+    980531 046  0.3+  0.3+
980327 620  1.0+  0.5+    980416 046  0.3+  0.8+    980531 557  0.5+  0.3-
980327 620  0.0   0.6+    980417 750  0.5+  0.4+    980531 557  0.8+  0.6-
980328 758  0.4+  0.0     980417 750  0.9+  0.7+    980613 658  0.5-  0.3-
980328 758  0.3+  0.2+    980417 750  0.1+  0.6+    980613 658  0.7-  0.2-
980328 758  0.3+  0.1-    980417 750  0.4-  0.8+    980613 658  0.0   0.0
980328 658  0.8-  0.2-    980417 046  0.5-  0.2+    980614 046  1.2+  0.0
980328 658  1.0-  0.1-    980417 046  0.5-  0.0     980614 046  0.8+  0.0
980328 658  0.7-  0.1-    980417 046  0.2-  0.0     980614 046  0.4+  0.2+
980328 046  0.4+  0.1-    980418 750  0.2-  0.2-
980328 046  0.4-  0.0     980418 704  0.5-  0.3-

Gareth V. Williams           (C) Copyright 1999 MPC           M.P.E.C. 1999-W30

Read MPEC 1999-W29 Read MPEC 1999-W31


Our Web policy. Index to the CBAT/MPC/ICQ pages.

MPC